ONEWEB-0184 (48211 NORAD) Tracking and Keplerian Element Data

This shows tracking and keplerian element data for the satellite.

Feedback or suggestion? Click here.




ElementValue
Catalog48211
NameONEWEB-0184
Epoch Orbit189
Epoch Day136.91668981
Epoch Year2021
RAAN305.7212
Inclination87.4189
Eccentricity0.0009658
Argument of Perigee169.9969
Mean Anonmoly138.7174
Mean Motion15.27504818
Decay Rate-0.0137389
L11 48211U 21031B 21136.91668981 -.01373890 00000-0 -56156-1 0 9991
L22 48211 87.4189 305.7212 0009658 169.9969 138.7174 15.27504818 1892

Live tracking and technical data element details for ONEWEB-0184 (NORAD 48211). ONEWEB-0184 can be tracked NOW for your location showing map with azimuth and elevation plus other details from your city location.

Track the satellite on the map from your city or location and see movement details for azimuth, elevation, latitude, longitude, range, height, and movement on the map or in text.







IsCatalogInMostPopularTable: catalog: 48211, numindb: 5
Update: records affected: 1



GetName: 48211 ONEWEB-0184

Hit Count: updated at: Mon, 17 May 2021 16:47:08 GMT